Time,TemperatureF,DewpointF,PressureIn,WindDirection,WindDirectionDegrees,WindSpeedMPH,WindSpeedGustMPH,Humidity,HourlyPrecipIn,Conditions,Clouds,dailyrainin,SolarRadiationWatts/m^2,SoftwareType,DateUTC
2013-06-01 00:02:00,49.7,44.4,30.17,NNW,330,0.0,0.0,82,0.00,,---,0.00,0.00,VWS V14.01,2013-06-01 07:02:00,
2013-06-01 00:07:00,49.6,44.3,30.17,NNW,330,0.0,0.0,82,0.00,,---,0.00,0.00,VWS V14.01,2013-06-01 07:07:00,
2013-06-01 00:12:00,49.5,44.6,30.17,NNW,330,0.0,0.0,83,0.00,,---,0.00,0.00,VWS V14.01,2013-06-01 07:12:00,
2013-06-01 00:17:00,49.4,44.5,30.17,NNW,330,0.0,0.0,83,0.00,,---,0.00,0.00,VWS V14.01,2013-06-01 07:17:00,
2013-06-01 00:22:00,49.2,44.3,30.17,NNW,330,0.0,0.0,83,0.00,,---,0.00,0.00,VWS V14.01,2013-06-01 07:22:00,
2013-06-01 00:27:00,49.1,44.2,30.17,NNW,330,0.0,0.0,83,0.00,,---,0.00,0.00,VWS V14.01,2013-06-01 07:27:00,
2013-06-01 00:32:00,49.0,44.1,30.17,NNW,330,0.0,0.0,83,0.00,,---,0.00,0.00,VWS V14.01,2013-06-01 07:32:00,
2013-06-01 00:37:00,48.8,44.2,30.17,NNW,330,0.0,0.0,84,0.00,,---,0.00,0.00,VWS V14.01,2013-06-01 07:37:00,
2013-06-01 00:42:00,48.7,44.4,30.17,NNW,330,0.0,0.0,85,0.00,,---,0.00,0.00,VWS V14.01,2013-06-01 07:42:00,
2013-06-01 00:47:00,48.6,44.3,30.17,NNW,330,0.0,0.0,85,0.00,,---,0.00,0.00,VWS V14.01,2013-06-01 07:47:00,
2013-06-01 00:52:00,48.6,44.3,30.17,NNW,330,0.0,0.0,85,0.00,,---,0.00,0.00,VWS V14.01,2013-06-01 07:52:00,
2013-06-01 00:57:00,48.5,44.5,30.17,NNW,330,0.0,0.0,86,0.00,,---,0.00,0.00,VWS V14.01,2013-06-01 07:57:00,
2013-06-01 01:02:00,48.5,44.5,30.17,NNW,330,0.0,0.0,86,0.00,,---,0.00,0.00,VWS V14.01,2013-06-01 08:02:00,
2013-06-01 01:07:00,48.5,44.5,30.17,NNW,330,0.0,0.0,86,0.00,,---,0.00,0.00,VWS V14.01,2013-06-01 08:07:00,
2013-06-01 01:12:00,48.6,44.9,30.17,NNW,330,0.0,0.0,87,0.00,,---,0.00,0.00,VWS V14.01,2013-06-01 08:12:00,
2013-06-01 01:17:00,48.6,44.9,30.17,NNW,330,0.0,0.0,87,0.00,,---,0.00,0.00,VWS V14.01,2013-06-01 08:17:00,
2013-06-01 01:22:00,48.7,45.0,30.17,NNW,330,0.0,0.0,87,0.00,,---,0.00,0.00,VWS V14.01,2013-06-01 08:22:00,
2013-06-01 01:27:00,48.7,45.0,30.17,NNW,330,0.0,0.0,87,0.00,,---,0.00,0.00,VWS V14.01,2013-06-01 08:27:00,
2013-06-01 01:32:00,48.8,45.1,30.17,NNW,330,0.0,0.0,87,0.00,,---,0.00,0.00,VWS V14.01,2013-06-01 08:32:00,
2013-06-01 01:37:00,49.0,45.6,30.17,NNW,330,0.0,0.0,88,0.00,,---,0.00,0.00,VWS V14.01,2013-06-01 08:37:00,
2013-06-01 01:42:00,49.2,45.5,30.17,NNW,330,0.0,0.0,87,0.00,,---,0.00,0.00,VWS V14.01,2013-06-01 08:42:00,
2013-06-01 01:47:00,49.2,45.5,30.16,NNW,330,0.0,0.0,87,0.00,,---,0.00,0.00,VWS V14.01,2013-06-01 08:47:00,
2013-06-01 01:52:00,49.3,45.6,30.17,NNW,330,0.0,0.0,87,0.00,,---,0.00,0.00,VWS V14.01,2013-06-01 08:52:00,
2013-06-01 01:57:00,49.4,45.4,30.17,NNW,330,0.0,0.0,86,0.00,,---,0.00,0.00,VWS V14.01,2013-06-01 08:57:00,
2013-06-01 02:02:00,49.4,45.4,30.17,NNW,330,0.0,0.0,86,0.00,,---,0.00,0.00,VWS V14.01,2013-06-01 09:02:00,
2013-06-01 02:07:00,49.3,45.6,30.17,NNW,330,0.0,0.0,87,0.00,,---,0.00,0.00,VWS V14.01,2013-06-01 09:07:00,
2013-06-01 02:12:00,49.3,45.6,30.17,NNW,330,0.0,0.0,87,0.00,,---,0.00,0.00,VWS V14.01,2013-06-01 09:12:00,
2013-06-01 02:17:00,49.3,45.6,30.16,NNW,330,0.0,0.0,87,0.00,,---,0.00,0.00,VWS V14.01,2013-06-01 09:17:00,
2013-06-01 02:22:00,49.4,45.7,30.16,NNW,330,0.0,0.0,87,0.00,,---,0.00,0.00,VWS V14.01,2013-06-01 09:22:00,
2013-06-01 02:27:00,49.4,45.7,30.16,NNW,330,0.0,0.0,87,0.00,,---,0.00,0.00,VWS V14.01,2013-06-01 09:27:00,
2013-06-01 02:32:00,49.4,45.7,30.16,NNW,330,0.0,0.0,87,0.00,,---,0.00,0.00,VWS V14.01,2013-06-01 09:32:00,
2013-06-01 02:37:00,49.4,45.7,30.16,NNW,330,0.0,0.0,87,0.00,,---,0.00,0.00,VWS V14.01,2013-06-01 09:37:00,
2013-06-01 02:42:00,49.4,45.7,30.16,NNW,330,0.0,0.0,87,0.00,,---,0.00,0.00,VWS V14.01,2013-06-01 09:42:00,
2013-06-01 02:47:00,49.4,45.7,30.16,NNW,330,0.0,0.0,87,0.00,,---,0.00,0.00,VWS V14.01,2013-06-01 09:47:00,
2013-06-01 02:52:00,49.3,45.6,30.16,NNW,330,0.0,0.0,87,0.00,,---,0.00,0.00,VWS V14.01,2013-06-01 09:52:00,
2013-06-01 02:57:00,49.2,45.5,30.16,NNW,330,0.0,0.0,87,0.00,,---,0.00,0.00,VWS V14.01,2013-06-01 09:57:00,
2013-06-01 03:02:00,49.2,45.5,30.16,NNW,330,0.0,0.0,87,0.00,,---,0.00,0.00,VWS V14.01,2013-06-01 10:02:00,
2013-06-01 03:07:00,49.2,45.5,30.16,NNW,330,0.0,0.0,87,0.00,,---,0.00,0.00,VWS V14.01,2013-06-01 10:07:00,
2013-06-01 03:12:00,49.2,45.5,30.16,NNW,330,0.0,0.0,87,0.00,,---,0.00,0.00,VWS V14.01,2013-06-01 10:12:00,
2013-06-01 03:17:00,49.2,45.8,30.16,NNW,330,0.0,0.0,88,0.00,,---,0.00,0.00,VWS V14.01,2013-06-01 10:17:00,
2013-06-01 03:22:00,49.2,45.5,30.16,NNW,330,0.0,0.0,87,0.00,,---,0.00,0.00,VWS V14.01,2013-06-01 10:22:00,
2013-06-01 03:27:00,49.2,45.8,30.16,NNW,330,0.0,0.0,88,0.00,,---,0.00,0.00,VWS V14.01,2013-06-01 10:27:00,
2013-06-01 03:32:00,49.2,45.8,30.16,NNW,330,0.0,0.0,88,0.00,,---,0.00,0.00,VWS V14.01,2013-06-01 10:32:00,
2013-06-01 03:37:00,49.1,45.7,30.15,NNW,330,0.0,0.0,88,0.00,,---,0.00,0.00,VWS V14.01,2013-06-01 10:37:00,
2013-06-01 03:42:00,49.1,45.7,30.15,NNW,330,0.0,0.0,88,0.00,,---,0.00,0.00,VWS V14.01,2013-06-01 10:42:00,
2013-06-01 03:47:00,49.1,45.7,30.15,NNW,330,0.0,0.0,88,0.00,,---,0.00,0.00,VWS V14.01,2013-06-01 10:47:00,
2013-06-01 03:52:00,49.0,45.9,30.15,NNW,330,0.0,0.0,89,0.00,,---,0.00,0.00,VWS V14.01,2013-06-01 10:52:00,
2013-06-01 03:57:00,49.0,45.9,30.15,NNW,330,0.0,0.0,89,0.00,,---,0.00,0.00,VWS V14.01,2013-06-01 10:57:00,
2013-06-01 04:02:00,49.0,45.9,30.15,NNW,330,0.0,0.0,89,0.00,,---,0.00,0.00,VWS V14.01,2013-06-01 11:02:00,
2013-06-01 04:07:00,48.9,45.8,30.15,NNW,330,0.0,0.0,89,0.00,,---,0.00,0.00,VWS V14.01,2013-06-01 11:07:00,
2013-06-01 04:12:00,48.9,45.8,30.15,NNW,330,0.0,0.0,89,0.00,,---,0.00,0.00,VWS V14.01,2013-06-01 11:12:00,
2013-06-01 04:17:00,48.9,45.8,30.15,NNW,330,0.0,0.0,89,0.00,,---,0.00,0.00,VWS V14.01,2013-06-01 11:17:00,
2013-06-01 04:22:00,48.8,45.7,30.15,NNW,330,0.0,0.0,89,0.00,,---,0.00,0.00,VWS V14.01,2013-06-01 11:22:00,
2013-06-01 04:27:00,48.8,45.7,30.14,NNW,330,0.0,0.0,89,0.00,,---,0.00,0.00,VWS V14.01,2013-06-01 11:27:00,
2013-06-01 04:33:00,48.8,45.7,30.14,NNW,330,0.0,0.0,89,0.00,,---,0.00,0.00,VWS V14.01,2013-06-01 11:33:00,
2013-06-01 04:37:00,48.8,45.7,30.14,NNW,330,0.0,0.0,89,0.00,,---,0.00,0.00,VWS V14.01,2013-06-01 11:37:00,
2013-06-01 04:42:00,48.8,45.7,30.14,NNW,330,0.0,0.0,89,0.00,,---,0.00,0.00,VWS V14.01,2013-06-01 11:42:00,
2013-06-01 04:48:00,48.7,45.6,30.15,NNW,330,0.0,0.0,89,0.00,,---,0.00,0.00,VWS V14.01,2013-06-01 11:48:00,
2013-06-01 04:53:00,48.7,45.6,30.15,NNW,330,0.0,0.0,89,0.00,,---,0.00,0.00,VWS V14.01,2013-06-01 11:53:00,
2013-06-01 04:58:00,48.7,45.6,30.15,NNW,330,0.0,0.0,89,0.00,,---,0.00,0.00,VWS V14.01,2013-06-01 11:58:00,
2013-06-01 05:03:00,48.7,45.9,30.14,NNW,330,0.0,0.0,90,0.00,,---,0.00,0.00,VWS V14.01,2013-06-01 12:03:00,
2013-06-01 05:08:00,48.7,45.9,30.14,NNW,330,0.0,0.0,90,0.00,,---,0.00,0.00,VWS V14.01,2013-06-01 12:08:00,
2013-06-01 05:13:00,48.7,45.9,30.14,NNW,330,0.0,0.0,90,0.00,,---,0.00,0.00,VWS V14.01,2013-06-01 12:13:00,
2013-06-01 05:18:00,48.7,45.9,30.14,NNW,330,0.0,0.0,90,0.00,,---,0.00,0.00,VWS V14.01,2013-06-01 12:18:00,
2013-06-01 05:23:00,48.7,45.9,30.14,NNW,330,0.0,0.0,90,0.00,,---,0.00,0.00,VWS V14.01,2013-06-01 12:23:00,
2013-06-01 05:28:00,48.8,46.0,30.14,NNW,330,0.0,0.0,90,0.00,,---,0.00,0.00,VWS V14.01,2013-06-01 12:28:00,
2013-06-01 05:33:00,48.8,46.0,30.14,NNW,330,0.0,0.0,90,0.00,,---,0.00,0.00,VWS V14.01,2013-06-01 12:33:00,
2013-06-01 05:38:00,48.8,46.0,30.14,NNW,330,0.0,0.0,90,0.00,,---,0.00,7.00,VWS V14.01,2013-06-01 12:38:00,
2013-06-01 05:43:00,48.8,46.0,30.14,NNW,330,0.0,0.0,90,0.00,,---,0.00,9.00,VWS V14.01,2013-06-01 12:43:00,
2013-06-01 05:48:00,48.8,46.0,30.14,NNW,330,0.0,0.0,90,0.00,,---,0.00,7.00,VWS V14.01,2013-06-01 12:48:00,
2013-06-01 05:53:00,48.9,46.1,30.14,NNW,330,0.0,0.0,90,0.00,,---,0.00,5.00,VWS V14.01,2013-06-01 12:53:00,
2013-06-01 05:58:00,49.0,46.2,30.15,NNW,330,0.0,0.0,90,0.00,,---,0.00,7.00,VWS V14.01,2013-06-01 12:58:00,
2013-06-01 06:03:00,49.1,46.3,30.14,NNW,330,0.0,0.0,90,0.00,,---,0.00,19.00,VWS V14.01,2013-06-01 13:03:00,
2013-06-01 06:08:00,49.2,46.4,30.14,NNW,330,0.0,1.0,90,0.00,,---,0.00,18.00,VWS V14.01,2013-06-01 13:08:00,
2013-06-01 06:13:00,49.3,46.8,30.14,NNW,330,0.0,1.0,91,0.00,,---,0.00,23.00,VWS V14.01,2013-06-01 13:13:00,
2013-06-01 06:18:00,49.4,46.6,30.14,NNW,330,0.0,0.0,90,0.00,,---,0.00,35.00,VWS V14.01,2013-06-01 13:18:00,
2013-06-01 06:23:00,49.5,46.7,30.14,NNW,330,0.0,0.0,90,0.00,,---,0.00,28.00,VWS V14.01,2013-06-01 13:23:00,
2013-06-01 06:28:00,49.7,46.9,30.14,NNW,330,0.0,0.0,90,0.00,,---,0.00,28.00,VWS V14.01,2013-06-01 13:28:00,
2013-06-01 06:33:00,49.7,46.9,30.14,NNW,330,0.0,0.0,90,0.00,,---,0.00,28.00,VWS V14.01,2013-06-01 13:33:00,
2013-06-01 06:38:00,49.9,47.1,30.14,NNW,330,0.0,0.0,90,0.00,,---,0.00,28.00,VWS V14.01,2013-06-01 13:38:00,
2013-06-01 06:43:00,50.0,46.9,30.14,NNW,330,0.0,0.0,89,0.00,,---,0.00,40.00,VWS V14.01,2013-06-01 13:43:00,
2013-06-01 06:48:00,50.1,47.0,30.14,NNW,330,0.0,0.0,89,0.00,,---,0.00,35.00,VWS V14.01,2013-06-01 13:48:00,
2013-06-01 06:53:00,50.2,47.1,30.13,NNE,32,0.0,2.0,89,0.00,,---,0.00,33.00,VWS V14.01,2013-06-01 13:53:00,
2013-06-01 06:58:00,50.2,47.1,30.14,NNE,32,0.0,2.0,89,0.00,,---,0.00,39.00,VWS V14.01,2013-06-01 13:58:00,
2013-06-01 07:03:00,50.3,47.2,30.13,NNE,32,0.0,0.0,89,0.00,,---,0.00,67.00,VWS V14.01,2013-06-01 14:03:00,
2013-06-01 07:08:00,50.4,47.3,30.13,NNE,32,0.0,0.0,89,0.00,,---,0.00,58.00,VWS V14.01,2013-06-01 14:08:00,
2013-06-01 07:13:00,50.6,47.5,30.13,NNE,32,0.0,0.0,89,0.00,,---,0.00,56.00,VWS V14.01,2013-06-01 14:13:00,
2013-06-01 07:18:00,50.7,47.6,30.13,NNE,32,0.0,0.0,89,0.00,,---,0.00,74.00,VWS V14.01,2013-06-01 14:18:00,
2013-06-01 07:23:00,51.0,47.6,30.14,NNE,32,0.0,0.0,88,0.00,,---,0.00,77.00,VWS V14.01,2013-06-01 14:23:00,
2013-06-01 07:28:00,51.3,47.9,30.14,NNE,32,0.0,0.0,88,0.00,,---,0.00,74.00,VWS V14.01,2013-06-01 14:28:00,
2013-06-01 07:33:00,51.6,48.2,30.14,North,355,0.0,0.0,88,0.00,,---,0.00,100.00,VWS V14.01,2013-06-01 14:33:00,
2013-06-01 07:38:00,51.9,48.8,30.14,NW,319,1.0,2.0,89,0.00,,---,0.00,135.00,VWS V14.01,2013-06-01 14:38:00,
2013-06-01 07:43:00,52.4,49.0,30.14,WNW,293,0.0,2.0,88,0.00,,---,0.00,125.00,VWS V14.01,2013-06-01 14:43:00,
2013-06-01 07:48:00,52.7,49.0,30.13,WNW,293,0.0,2.0,87,0.00,,---,0.00,186.00,VWS V14.01,2013-06-01 14:48:00,
2013-06-01 07:53:00,53.1,48.7,30.13,WNW,293,0.0,1.0,85,0.00,,---,0.00,251.00,VWS V14.01,2013-06-01 14:53:00,
2013-06-01 07:58:00,53.6,48.6,30.13,WNW,292,0.0,2.0,83,0.00,,---,0.00,202.00,VWS V14.01,2013-06-01 14:58:00,
2013-06-01 08:03:00,54.0,48.6,30.13,South,185,0.0,2.0,82,0.00,,---,0.00,216.00,VWS V14.01,2013-06-01 15:03:00,
2013-06-01 08:08:00,54.4,49.0,30.12,South,185,0.0,0.0,82,0.00,,---,0.00,220.00,VWS V14.01,2013-06-01 15:08:00,
2013-06-01 08:13:00,54.7,49.0,30.12,East,97,0.0,1.0,81,0.00,,---,0.00,149.00,VWS V14.01,2013-06-01 15:13:00,
2013-06-01 08:18:00,55.0,49.3,30.12,East,97,0.0,0.0,81,0.00,,---,0.00,125.00,VWS V14.01,2013-06-01 15:18:00,
2013-06-01 08:23:00,55.2,49.2,30.12,East,98,0.0,1.0,80,0.00,,---,0.00,193.00,VWS V14.01,2013-06-01 15:23:00,
2013-06-01 08:28:00,55.5,49.1,30.12,East,98,0.0,0.0,79,0.00,,---,0.00,438.00,VWS V14.01,2013-06-01 15:28:00,
2013-06-01 08:33:00,56.1,49.7,30.12,East,98,0.0,0.0,79,0.00,,---,0.00,668.00,VWS V14.01,2013-06-01 15:33:00,
2013-06-01 08:38:00,57.0,49.2,30.12,NE,36,0.0,2.0,75,0.00,,---,0.00,255.00,VWS V14.01,2013-06-01 15:38:00,
2013-06-01 08:43:00,57.5,50.0,30.12,NE,46,0.0,2.0,76,0.00,,---,0.00,155.00,VWS V14.01,2013-06-01 15:43:00,
2013-06-01 08:48:00,57.8,49.6,30.12,NE,46,0.0,1.0,74,0.00,,---,0.00,183.00,VWS V14.01,2013-06-01 15:48:00,
2013-06-01 08:53:00,58.2,50.3,30.12,WNW,293,3.0,6.0,75,0.00,,---,0.00,216.00,VWS V14.01,2013-06-01 15:53:00,
2013-06-01 08:58:00,59.0,51.1,30.12,WSW,250,1.0,6.0,75,0.00,,---,0.00,181.00,VWS V14.01,2013-06-01 15:58:00,
2013-06-01 09:03:00,60.3,51.2,30.12,WSW,251,2.0,4.0,72,0.00,,---,0.00,719.00,VWS V14.01,2013-06-01 16:03:00,
2013-06-01 09:08:00,61.5,51.6,30.12,WSW,251,0.0,3.0,70,0.00,,---,0.00,417.00,VWS V14.01,2013-06-01 16:08:00,
2013-06-01 09:13:00,62.1,51.8,30.12,WSW,257,2.0,4.0,69,0.00,,---,0.00,374.00,VWS V14.01,2013-06-01 16:13:00,
2013-06-01 09:18:00,62.7,51.2,30.12,West,272,1.0,4.0,66,0.00,,---,0.00,278.00,VWS V14.01,2013-06-01 16:18:00,
2013-06-01 09:23:00,63.0,51.9,30.11,West,272,0.0,2.0,67,0.00,,---,0.00,325.00,VWS V14.01,2013-06-01 16:23:00,
2013-06-01 09:28:00,63.8,52.7,30.11,West,279,2.0,3.0,67,0.00,,---,0.00,647.00,VWS V14.01,2013-06-01 16:28:00,
2013-06-01 09:33:00,64.8,52.3,30.11,West,281,0.0,3.0,64,0.00,,---,0.00,684.00,VWS V14.01,2013-06-01 16:33:00,
2013-06-01 09:38:00,64.9,52.9,30.11,SSW,192,0.0,3.0,65,0.00,,---,0.00,772.00,VWS V14.01,2013-06-01 16:38:00,
2013-06-01 09:43:00,65.6,52.7,30.11,WNW,303,2.0,4.0,63,0.00,,---,0.00,689.00,VWS V14.01,2013-06-01 16:43:00,
2013-06-01 09:48:00,66.3,52.5,30.11,WSW,254,1.0,4.0,61,0.00,,---,0.00,299.00,VWS V14.01,2013-06-01 16:48:00,
2013-06-01 09:53:00,66.9,52.6,30.11,West,270,1.0,4.0,60,0.00,,---,0.00,367.00,VWS V14.01,2013-06-01 16:53:00,
2013-06-01 09:58:00,67.3,53.0,30.11,WNW,291,1.0,6.0,60,0.00,,---,0.00,475.00,VWS V14.01,2013-06-01 16:58:00,
2013-06-01 10:03:00,67.7,52.9,30.10,West,266,2.0,6.0,59,0.00,,---,0.00,705.00,VWS V14.01,2013-06-01 17:03:00,
2013-06-01 10:08:00,68.1,52.8,30.10,West,280,0.0,5.0,58,0.00,,---,0.00,584.00,VWS V14.01,2013-06-01 17:08:00,
2013-06-01 10:13:00,68.1,53.2,30.10,WNW,294,2.0,5.0,59,0.00,,---,0.00,411.00,VWS V14.01,2013-06-01 17:13:00,
2013-06-01 10:18:00,68.4,52.1,30.10,NW,304,1.0,4.0,56,0.00,,---,0.00,564.00,VWS V14.01,2013-06-01 17:18:00,
2013-06-01 10:23:00,68.8,53.4,30.10,West,279,0.0,5.0,58,0.00,,---,0.00,425.00,VWS V14.01,2013-06-01 17:23:00,
2013-06-01 10:28:00,68.9,51.6,30.09,WNW,286,0.0,4.0,54,0.00,,---,0.00,431.00,VWS V14.01,2013-06-01 17:28:00,
2013-06-01 10:33:00,68.9,51.6,30.10,West,275,0.0,6.0,54,0.00,,---,0.00,246.00,VWS V14.01,2013-06-01 17:33:00,
2013-06-01 10:38:00,68.6,51.3,30.09,West,271,3.0,4.0,54,0.00,,---,0.00,216.00,VWS V14.01,2013-06-01 17:38:00,
2013-06-01 10:43:00,68.7,53.3,30.09,WSW,240,1.0,5.0,58,0.00,,---,0.00,926.00,VWS V14.01,2013-06-01 17:43:00,
2013-06-01 10:48:00,69.5,52.2,30.09,West,261,4.0,5.0,54,0.00,,---,0.00,926.00,VWS V14.01,2013-06-01 17:48:00,
2013-06-01 10:54:00,70.5,52.0,30.09,WSW,258,0.0,5.0,52,0.00,,---,0.00,984.00,VWS V14.01,2013-06-01 17:54:00,
2013-06-01 10:58:00,71.2,51.6,30.09,West,275,0.0,4.0,50,0.00,,---,0.00,984.00,VWS V14.01,2013-06-01 17:58:00,
2013-06-01 11:03:00,71.4,51.3,30.08,NW,305,0.0,4.0,49,0.00,,---,0.00,1058.00,VWS V14.01,2013-06-01 18:03:00,
2013-06-01 11:08:00,71.2,51.6,30.08,West,281,5.0,6.0,50,0.00,,---,0.00,424.00,VWS V14.01,2013-06-01 18:08:00,
2013-06-01 11:14:00,71.3,51.2,30.08,West,266,2.0,6.0,49,0.00,,---,0.00,320.00,VWS V14.01,2013-06-01 18:14:00,
2013-06-01 11:19:00,71.0,50.9,30.08,SW,216,1.0,9.0,49,0.00,,---,0.00,476.00,VWS V14.01,2013-06-01 18:19:00,
2013-06-01 11:24:00,69.3,48.8,30.08,SSW,202,0.0,9.0,48,0.00,,---,0.00,418.00,VWS V14.01,2013-06-01 18:24:00,
2013-06-01 11:29:00,68.6,50.3,30.08,West,279,3.0,4.0,52,0.00,,---,0.00,385.00,VWS V14.01,2013-06-01 18:29:00,
2013-06-01 11:34:00,69.3,52.0,30.08,WNW,292,4.0,6.0,54,0.00,,---,0.00,1085.00,VWS V14.01,2013-06-01 18:34:00,
2013-06-01 11:39:00,70.3,51.9,30.08,South,180,2.0,6.0,52,0.00,,---,0.00,1085.00,VWS V14.01,2013-06-01 18:39:00,
2013-06-01 11:44:00,69.6,49.6,30.09,ESE,109,0.0,4.0,49,0.00,,---,0.00,385.00,VWS V14.01,2013-06-01 18:44:00,
2013-06-01 11:49:00,69.7,50.8,30.09,NW,309,3.0,9.0,51,0.00,,---,0.00,455.00,VWS V14.01,2013-06-01 18:49:00,
2013-06-01 11:54:00,70.1,52.2,30.09,West,281,0.0,9.0,53,0.00,,---,0.00,483.00,VWS V14.01,2013-06-01 18:54:00,
2013-06-01 11:59:00,70.5,52.6,30.08,NW,311,7.0,8.0,53,0.00,,---,0.00,598.00,VWS V14.01,2013-06-01 18:59:00,
2013-06-01 12:04:00,70.7,50.1,30.08,SSW,206,4.0,8.0,48,0.00,,---,0.00,415.00,VWS V14.01,2013-06-01 19:04:00,
2013-06-01 12:09:00,70.6,51.6,30.08,SW,217,1.0,7.0,51,0.00,,---,0.00,508.00,VWS V14.01,2013-06-01 19:09:00,
2013-06-01 12:14:00,71.3,52.8,30.08,West,259,1.0,5.0,52,0.00,,---,0.00,582.00,VWS V14.01,2013-06-01 19:14:00,
2013-06-01 12:19:00,71.8,51.1,30.08,South,179,5.0,5.0,48,0.00,,---,0.00,1259.00,VWS V14.01,2013-06-01 19:19:00,
2013-06-01 12:24:00,72.1,50.8,30.07,West,269,2.0,7.0,47,0.00,,---,0.00,622.00,VWS V14.01,2013-06-01 19:24:00,
2013-06-01 12:29:00,72.3,51.5,30.07,West,263,0.0,7.0,48,0.00,,---,0.00,659.00,VWS V14.01,2013-06-01 19:29:00,
2013-06-01 12:34:00,71.6,50.3,30.07,SSW,208,1.0,6.0,47,0.00,,---,0.00,431.00,VWS V14.01,2013-06-01 19:34:00,
2013-06-01 12:39:00,70.7,50.6,30.07,West,271,5.0,7.0,49,0.00,,---,0.00,455.00,VWS V14.01,2013-06-01 19:39:00,
2013-06-01 12:44:00,70.5,49.3,30.07,SSE,165,0.0,6.0,47,0.00,,---,0.00,541.00,VWS V14.01,2013-06-01 19:44:00,
2013-06-01 12:49:00,70.4,50.9,30.07,West,277,7.0,7.0,50,0.00,,---,0.00,1053.00,VWS V14.01,2013-06-01 19:49:00,
2013-06-01 12:54:00,71.1,52.6,30.07,West,272,3.0,7.0,52,0.00,,---,0.00,1183.00,VWS V14.01,2013-06-01 19:54:00,
2013-06-01 12:59:00,71.8,50.5,30.06,NW,314,1.0,7.0,47,0.00,,---,0.00,1234.00,VWS V14.01,2013-06-01 19:59:00,
2013-06-01 13:04:00,71.3,50.6,30.06,NW,313,2.0,5.0,48,0.00,,---,0.00,837.00,VWS V14.01,2013-06-01 20:04:00,
2013-06-01 13:09:00,71.7,52.1,30.07,WNW,282,6.0,8.0,50,0.00,,---,0.00,775.00,VWS V14.01,2013-06-01 20:09:00,
2013-06-01 13:14:00,73.0,53.8,30.07,NW,310,2.0,9.0,51,0.00,,---,0.00,1206.00,VWS V14.01,2013-06-01 20:14:00,
2013-06-01 13:19:00,75.0,53.4,30.06,West,268,2.0,7.0,47,0.00,,---,0.00,1294.00,VWS V14.01,2013-06-01 20:19:00,
2013-06-01 13:24:00,75.8,53.0,30.06,WNW,287,1.0,7.0,45,0.00,,---,0.00,401.00,VWS V14.01,2013-06-01 20:24:00,
2013-06-01 13:29:00,75.3,52.5,30.06,WNW,290,2.0,6.0,45,0.00,,---,0.00,364.00,VWS V14.01,2013-06-01 20:29:00,
2013-06-01 13:34:00,74.9,51.5,30.06,West,261,4.0,6.0,44,0.00,,---,0.00,355.00,VWS V14.01,2013-06-01 20:34:00,
2013-06-01 13:39:00,74.3,51.0,30.06,NW,321,0.0,5.0,44,0.00,,---,0.00,378.00,VWS V14.01,2013-06-01 20:39:00,
2013-06-01 13:44:00,73.3,50.7,30.06,West,274,4.0,5.0,45,0.00,,---,0.00,429.00,VWS V14.01,2013-06-01 20:44:00,
2013-06-01 13:49:00,73.0,49.8,30.06,NW,317,3.0,7.0,44,0.00,,---,0.00,438.00,VWS V14.01,2013-06-01 20:49:00,
2013-06-01 13:54:00,72.8,49.6,30.06,West,269,3.0,7.0,44,0.00,,---,0.00,311.00,VWS V14.01,2013-06-01 20:54:00,
2013-06-01 13:59:00,72.1,49.6,30.06,West,270,1.0,7.0,45,0.00,,---,0.00,686.00,VWS V14.01,2013-06-01 20:59:00,
2013-06-01 14:04:00,73.0,51.0,30.06,West,275,1.0,6.0,46,0.00,,---,0.00,1195.00,VWS V14.01,2013-06-01 21:04:00,
2013-06-01 14:09:00,74.3,50.4,30.05,WNW,286,2.0,5.0,43,0.00,,---,0.00,1088.00,VWS V14.01,2013-06-01 21:09:00,
2013-06-01 14:14:00,75.1,52.3,30.05,West,280,1.0,5.0,45,0.00,,---,0.00,1071.00,VWS V14.01,2013-06-01 21:14:00,
2013-06-01 14:19:00,75.9,49.2,30.05,SSW,207,3.0,6.0,39,0.00,,---,0.00,1072.00,VWS V14.01,2013-06-01 21:19:00,
2013-06-01 14:24:00,75.4,49.4,30.05,SE,138,2.0,6.0,40,0.00,,---,0.00,1023.00,VWS V14.01,2013-06-01 21:24:00,
2013-06-01 14:29:00,75.2,49.2,30.05,SE,133,1.0,7.0,40,0.00,,---,0.00,1002.00,VWS V14.01,2013-06-01 21:29:00,
2013-06-01 14:34:00,75.6,50.3,30.05,SE,146,5.0,9.0,41,0.00,,---,0.00,958.00,VWS V14.01,2013-06-01 21:34:00,
2013-06-01 14:39:00,75.6,48.9,30.05,North,355,1.0,9.0,39,0.00,,---,0.00,942.00,VWS V14.01,2013-06-01 21:39:00,
2013-06-01 14:44:00,74.9,50.3,30.05,WNW,300,9.0,9.0,42,0.00,,---,0.00,930.00,VWS V14.01,2013-06-01 21:44:00,
2013-06-01 14:49:00,74.8,48.2,30.05,WNW,294,4.0,9.0,39,0.00,,---,0.00,937.00,VWS V14.01,2013-06-01 21:49:00,
2013-06-01 14:54:00,75.2,49.9,30.05,West,268,3.0,9.0,41,0.00,,---,0.00,930.00,VWS V14.01,2013-06-01 21:54:00,
2013-06-01 14:59:00,76.2,50.1,30.04,WNW,283,5.0,7.0,40,0.00,,---,0.00,958.00,VWS V14.01,2013-06-01 21:59:00,
2013-06-01 15:04:00,76.6,46.9,30.04,WSW,248,0.0,7.0,35,0.00,,---,0.00,742.00,VWS V14.01,2013-06-01 22:04:00,
2013-06-01 15:09:00,76.7,47.8,30.04,NW,307,2.0,8.0,36,0.00,,---,0.00,647.00,VWS V14.01,2013-06-01 22:09:00,
2013-06-01 15:14:00,77.2,48.9,30.04,West,277,0.0,8.0,37,0.00,,---,0.00,536.00,VWS V14.01,2013-06-01 22:14:00,
2013-06-01 15:19:00,77.3,48.3,30.04,SW,220,2.0,6.0,36,0.00,,---,0.00,795.00,VWS V14.01,2013-06-01 22:19:00,
2013-06-01 15:24:00,77.5,47.7,30.03,WNW,286,1.0,7.0,35,0.00,,---,0.00,295.00,VWS V14.01,2013-06-01 22:24:00,
2013-06-01 15:29:00,77.4,49.1,30.03,SSW,207,3.0,7.0,37,0.00,,---,0.00,751.00,VWS V14.01,2013-06-01 22:29:00,
2013-06-01 15:34:00,77.4,47.6,30.03,WNW,288,2.0,8.0,35,0.00,,---,0.00,795.00,VWS V14.01,2013-06-01 22:34:00,
2013-06-01 15:39:00,76.8,49.3,30.03,NW,306,5.0,8.0,38,0.00,,---,0.00,557.00,VWS V14.01,2013-06-01 22:39:00,
2013-06-01 15:44:00,76.2,48.0,30.03,WNW,286,1.0,5.0,37,0.00,,---,0.00,659.00,VWS V14.01,2013-06-01 22:44:00,
2013-06-01 15:49:00,75.8,48.4,30.03,West,277,4.0,5.0,38,0.00,,---,0.00,629.00,VWS V14.01,2013-06-01 22:49:00,
2013-06-01 15:54:00,76.0,49.3,30.03,West,269,2.0,9.0,39,0.00,,---,0.00,615.00,VWS V14.01,2013-06-01 22:54:00,
2013-06-01 15:59:00,76.2,47.3,30.03,WNW,302,1.0,10.0,36,0.00,,---,0.00,573.00,VWS V14.01,2013-06-01 22:59:00,
2013-06-01 16:04:00,75.8,47.7,30.03,WSW,249,2.0,10.0,37,0.00,,---,0.00,548.00,VWS V14.01,2013-06-01 23:04:00,
2013-06-01 16:09:00,75.6,48.9,30.03,West,261,2.0,7.0,39,0.00,,---,0.00,345.00,VWS V14.01,2013-06-01 23:09:00,
2013-06-01 16:14:00,75.5,47.4,30.03,West,274,3.0,6.0,37,0.00,,---,0.00,496.00,VWS V14.01,2013-06-01 23:14:00,
2013-06-01 16:19:00,75.2,49.2,30.03,West,264,3.0,5.0,40,0.00,,---,0.00,448.00,VWS V14.01,2013-06-01 23:19:00,
2013-06-01 16:24:00,75.0,47.0,30.02,SSW,208,1.0,5.0,37,0.00,,---,0.00,512.00,VWS V14.01,2013-06-01 23:24:00,
2013-06-01 16:29:00,75.1,48.5,30.02,West,278,2.0,6.0,39,0.00,,---,0.00,721.00,VWS V14.01,2013-06-01 23:29:00,
2013-06-01 16:34:00,75.2,47.9,30.02,WNW,294,1.0,8.0,38,0.00,,---,0.00,357.00,VWS V14.01,2013-06-01 23:34:00,
2013-06-01 16:39:00,75.2,49.2,30.02,East,90,2.0,8.0,40,0.00,,---,0.00,357.00,VWS V14.01,2013-06-01 23:39:00,
2013-06-01 16:44:00,75.4,48.8,30.02,WSW,244,1.0,6.0,39,0.00,,---,0.00,724.00,VWS V14.01,2013-06-01 23:44:00,
2013-06-01 16:49:00,75.3,49.3,30.02,WNW,289,0.0,5.0,40,0.00,,---,0.00,682.00,VWS V14.01,2013-06-01 23:49:00,
2013-06-01 16:54:00,75.6,47.5,30.02,WNW,290,2.0,6.0,37,0.00,,---,0.00,659.00,VWS V14.01,2013-06-01 23:54:00,
2013-06-01 16:59:00,75.4,45.9,30.01,SE,128,2.0,7.0,35,0.00,,---,0.00,649.00,VWS V14.01,2013-06-01 23:59:00,
2013-06-01 17:04:00,74.3,45.7,30.01,SE,133,6.0,7.0,36,0.00,,---,0.00,642.00,VWS V14.01,2013-06-02 00:04:00,
2013-06-01 17:09:00,73.6,48.5,30.01,West,263,4.0,7.0,41,0.00,,---,0.00,624.00,VWS V14.01,2013-06-02 00:09:00,
2013-06-01 17:14:00,73.4,47.6,30.01,WNW,297,4.0,6.0,40,0.00,,---,0.00,591.00,VWS V14.01,2013-06-02 00:14:00,
2013-06-01 17:19:00,73.3,48.2,30.01,West,271,3.0,5.0,41,0.00,,---,0.00,573.00,VWS V14.01,2013-06-02 00:19:00,
2013-06-01 17:24:00,73.2,47.5,30.01,WNW,292,4.0,6.0,40,0.00,,---,0.00,522.00,VWS V14.01,2013-06-02 00:24:00,
2013-06-01 17:29:00,72.8,45.7,30.01,SSE,168,1.0,6.0,38,0.00,,---,0.00,72.00,VWS V14.01,2013-06-02 00:29:00,
2013-06-01 17:34:00,72.4,48.7,30.00,West,261,2.0,7.0,43,0.00,,---,0.00,67.00,VWS V14.01,2013-06-02 00:34:00,
2013-06-01 17:39:00,72.1,47.1,30.00,West,259,3.0,7.0,41,0.00,,---,0.00,58.00,VWS V14.01,2013-06-02 00:39:00,
2013-06-01 17:44:00,71.6,47.3,30.00,WSW,240,2.0,5.0,42,0.00,,---,0.00,53.00,VWS V14.01,2013-06-02 00:44:00,
2013-06-01 17:49:00,71.4,48.4,30.00,West,277,2.0,4.0,44,0.00,,---,0.00,47.00,VWS V14.01,2013-06-02 00:49:00,
2013-06-01 17:55:00,71.2,47.0,30.00,NNE,22,0.0,5.0,42,0.00,,---,0.00,53.00,VWS V14.01,2013-06-02 00:55:00,
2013-06-01 18:00:00,71.1,48.1,29.99,West,267,2.0,5.0,44,0.00,,---,0.00,47.00,VWS V14.01,2013-06-02 01:00:00,
2013-06-01 18:05:00,70.8,47.2,29.99,NE,48,3.0,5.0,43,0.00,,---,0.00,58.00,VWS V14.01,2013-06-02 01:05:00,
2013-06-01 18:10:00,70.5,48.8,29.99,North,5,0.0,3.0,46,0.00,,---,0.00,53.00,VWS V14.01,2013-06-02 01:10:00,
2013-06-01 18:15:00,70.2,48.5,29.99,WNW,292,0.0,5.0,46,0.00,,---,0.00,65.00,VWS V14.01,2013-06-02 01:15:00,
2013-06-01 18:20:00,70.1,49.0,29.99,WSW,246,1.0,5.0,47,0.00,,---,0.00,90.00,VWS V14.01,2013-06-02 01:20:00,
2013-06-01 18:25:00,70.0,50.0,29.99,NW,310,4.0,11.0,49,0.00,,---,0.00,90.00,VWS V14.01,2013-06-02 01:25:00,
2013-06-01 18:30:00,70.0,50.0,29.99,West,274,4.0,11.0,49,0.00,,---,0.00,32.00,VWS V14.01,2013-06-02 01:30:00,
2013-06-01 18:35:00,69.6,50.2,29.99,WNW,288,3.0,7.0,50,0.00,,---,0.00,39.00,VWS V14.01,2013-06-02 01:35:00,
2013-06-01 18:40:00,69.0,50.7,29.99,WNW,282,3.0,7.0,52,0.00,,---,0.00,35.00,VWS V14.01,2013-06-02 01:40:00,
2013-06-01 18:45:00,68.3,50.5,29.99,WNW,300,2.0,7.0,53,0.00,,---,0.00,33.00,VWS V14.01,2013-06-02 01:45:00,
2013-06-01 18:50:00,67.9,50.7,29.99,WNW,299,1.0,6.0,54,0.00,,---,0.00,25.00,VWS V14.01,2013-06-02 01:50:00,
2013-06-01 18:55:00,67.4,50.7,29.98,WNW,292,0.0,6.0,55,0.00,,---,0.00,39.00,VWS V14.01,2013-06-02 01:55:00,
2013-06-01 19:00:00,67.1,50.4,29.98,West,270,3.0,5.0,55,0.00,,---,0.00,21.00,VWS V14.01,2013-06-02 02:00:00,
2013-06-01 19:05:00,66.8,50.6,29.98,West,275,1.0,5.0,56,0.00,,---,0.00,18.00,VWS V14.01,2013-06-02 02:05:00,
2013-06-01 19:10:00,66.5,50.3,29.98,West,267,1.0,3.0,56,0.00,,---,0.00,19.00,VWS V14.01,2013-06-02 02:10:00,
2013-06-01 19:15:00,66.2,50.5,29.98,West,267,0.0,3.0,57,0.00,,---,0.00,19.00,VWS V14.01,2013-06-02 02:15:00,
2013-06-01 19:20:00,66.0,49.9,29.98,North,5,1.0,3.0,56,0.00,,---,0.00,19.00,VWS V14.01,2013-06-02 02:20:00,
2013-06-01 19:25:00,65.7,49.6,29.98,NW,309,0.0,3.0,56,0.00,,---,0.00,21.00,VWS V14.01,2013-06-02 02:25:00,
2013-06-01 19:30:00,65.4,49.3,29.98,WSW,246,1.0,2.0,56,0.00,,---,0.00,28.00,VWS V14.01,2013-06-02 02:30:00,
2013-06-01 19:35:00,65.2,49.6,29.98,WSW,256,0.0,3.0,57,0.00,,---,0.00,39.00,VWS V14.01,2013-06-02 02:35:00,
2013-06-01 19:40:00,65.0,50.3,29.98,WNW,284,0.0,3.0,59,0.00,,---,0.00,44.00,VWS V14.01,2013-06-02 02:40:00,
2013-06-01 19:45:00,64.9,49.8,29.98,WNW,298,2.0,3.0,58,0.00,,---,0.00,44.00,VWS V14.01,2013-06-02 02:45:00,
2013-06-01 19:50:00,64.9,50.2,29.98,West,269,2.0,7.0,59,0.00,,---,0.00,44.00,VWS V14.01,2013-06-02 02:50:00,
2013-06-01 19:55:00,64.9,50.2,29.98,West,259,0.0,7.0,59,0.00,,---,0.00,30.00,VWS V14.01,2013-06-02 02:55:00,
2013-06-01 20:00:00,64.8,50.2,29.98,West,279,2.0,5.0,59,0.00,,---,0.00,26.00,VWS V14.01,2013-06-02 03:00:00,
2013-06-01 20:05:00,64.7,50.1,29.98,West,263,0.0,3.0,59,0.00,,---,0.00,25.00,VWS V14.01,2013-06-02 03:05:00,
2013-06-01 20:10:00,64.5,49.9,29.98,WNW,298,0.0,4.0,59,0.00,,---,0.00,21.00,VWS V14.01,2013-06-02 03:10:00,
2013-06-01 20:15:00,64.1,49.5,29.98,NNW,342,0.0,4.0,59,0.00,,---,0.00,19.00,VWS V14.01,2013-06-02 03:15:00,
2013-06-01 20:20:00,63.8,49.2,29.97,WSW,252,1.0,4.0,59,0.00,,---,0.00,14.00,VWS V14.01,2013-06-02 03:20:00,
2013-06-01 20:25:00,63.4,49.3,29.97,WSW,254,0.0,4.0,60,0.00,,---,0.00,12.00,VWS V14.01,2013-06-02 03:25:00,
2013-06-01 20:30:00,63.1,49.5,29.98,West,262,2.0,2.0,61,0.00,,---,0.00,9.00,VWS V14.01,2013-06-02 03:30:00,
2013-06-01 20:35:00,62.7,49.1,29.98,WSW,256,0.0,2.0,61,0.00,,---,0.00,7.00,VWS V14.01,2013-06-02 03:35:00,
2013-06-01 20:40:00,62.4,48.8,29.98,WSW,250,0.0,4.0,61,0.00,,---,0.00,5.00,VWS V14.01,2013-06-02 03:40:00,
2013-06-01 20:45:00,62.1,48.9,29.98,WSW,250,0.0,4.0,62,0.00,,---,0.00,0.00,VWS V14.01,2013-06-02 03:45:00,
2013-06-01 20:50:00,61.9,48.8,29.98,WSW,246,0.0,4.0,62,0.00,,---,0.00,0.00,VWS V14.01,2013-06-02 03:50:00,
2013-06-01 20:55:00,61.7,49.0,29.98,North,5,2.0,4.0,63,0.00,,---,0.00,0.00,VWS V14.01,2013-06-02 03:55:00,
2013-06-01 21:00:00,61.5,48.8,29.98,WSW,242,0.0,4.0,63,0.00,,---,0.00,0.00,VWS V14.01,2013-06-02 04:00:00,
2013-06-01 21:01:00,61.5,48.8,29.98,WSW,242,0.0,3.0,63,0.00,,---,0.00,0.00,VWS V14.01,2013-06-02 04:01:00,
2013-06-01 21:02:00,61.5,48.4,29.99,WSW,242,0.0,3.0,62,0.00,,---,0.00,0.00,VWS V14.01,2013-06-02 04:02:00,
2013-06-01 21:07:00,61.4,48.7,29.99,WNW,295,0.0,3.0,63,0.00,,---,0.00,0.00,VWS V14.01,2013-06-02 04:07:00,
2013-06-01 21:12:00,61.2,48.9,29.99,WNW,294,0.0,3.0,64,0.00,,---,0.00,0.00,VWS V14.01,2013-06-02 04:12:00,
2013-06-01 21:17:00,61.1,48.8,29.98,WNW,294,0.0,1.0,64,0.00,,---,0.00,0.00,VWS V14.01,2013-06-02 04:17:00,
2013-06-01 21:22:00,60.9,48.7,29.99,WNW,285,0.0,4.0,64,0.00,,---,0.00,0.00,VWS V14.01,2013-06-02 04:22:00,
2013-06-01 21:27:00,60.8,48.6,29.99,WNW,290,0.0,4.0,64,0.00,,---,0.00,0.00,VWS V14.01,2013-06-02 04:27:00,
2013-06-01 21:32:00,60.6,48.8,29.99,WNW,290,0.0,2.0,65,0.00,,---,0.00,0.00,VWS V14.01,2013-06-02 04:32:00,
2013-06-01 21:37:00,60.5,49.1,29.99,WSW,258,0.0,4.0,66,0.00,,---,0.00,0.00,VWS V14.01,2013-06-02 04:37:00,
2013-06-01 21:42:00,60.3,49.3,29.99,WNW,282,0.0,5.0,67,0.00,,---,0.00,0.00,VWS V14.01,2013-06-02 04:42:00,
2013-06-01 21:47:00,60.2,49.6,29.99,WNW,283,0.0,3.0,68,0.00,,---,0.00,0.00,VWS V14.01,2013-06-02 04:47:00,
2013-06-01 21:52:00,60.0,49.4,29.99,WNW,283,0.0,3.0,68,0.00,,---,0.00,0.00,VWS V14.01,2013-06-02 04:52:00,
2013-06-01 21:57:00,59.9,49.3,29.99,WNW,283,0.0,2.0,68,0.00,,---,0.00,0.00,VWS V14.01,2013-06-02 04:57:00,
2013-06-01 22:02:00,59.7,49.5,29.99,WNW,283,0.0,1.0,69,0.00,,---,0.00,0.00,VWS V14.01,2013-06-02 05:02:00,
2013-06-01 22:07:00,59.6,49.8,29.99,WNW,283,0.0,2.0,70,0.00,,---,0.00,0.00,VWS V14.01,2013-06-02 05:07:00,
2013-06-01 22:12:00,59.5,49.3,29.99,WNW,283,0.0,2.0,69,0.00,,---,0.00,0.00,VWS V14.01,2013-06-02 05:12:00,
2013-06-01 22:17:00,59.4,49.6,29.99,WNW,283,0.0,0.0,70,0.00,,---,0.00,0.00,VWS V14.01,2013-06-02 05:17:00,
2013-06-01 22:22:00,59.3,49.5,29.99,WNW,283,0.0,1.0,70,0.00,,---,0.00,0.00,VWS V14.01,2013-06-02 05:22:00,
2013-06-01 22:27:00,59.1,49.7,29.99,WNW,283,0.0,2.0,71,0.00,,---,0.00,0.00,VWS V14.01,2013-06-02 05:27:00,
2013-06-01 22:32:00,59.0,49.6,29.99,WNW,283,0.0,2.0,71,0.00,,---,0.00,0.00,VWS V14.01,2013-06-02 05:32:00,
2013-06-01 22:37:00,59.0,50.0,29.99,WNW,283,0.0,0.0,72,0.00,,---,0.00,0.00,VWS V14.01,2013-06-02 05:37:00,
2013-06-01 22:42:00,59.0,49.6,29.99,WNW,283,0.0,1.0,71,0.00,,---,0.00,0.00,VWS V14.01,2013-06-02 05:42:00,
2013-06-01 22:47:00,58.8,49.8,29.99,WNW,283,0.0,3.0,72,0.00,,---,0.00,0.00,VWS V14.01,2013-06-02 05:47:00,
2013-06-01 22:52:00,58.6,50.0,29.99,WNW,283,0.0,3.0,73,0.00,,---,0.00,0.00,VWS V14.01,2013-06-02 05:52:00,
2013-06-01 22:57:00,58.5,49.1,29.99,WNW,283,0.0,0.0,71,0.00,,---,0.00,0.00,VWS V14.01,2013-06-02 05:57:00,
2013-06-01 23:02:00,58.3,49.0,29.99,WNW,285,0.0,3.0,71,0.00,,---,0.00,0.00,VWS V14.01,2013-06-02 06:02:00,
2013-06-01 23:07:00,58.1,48.4,29.99,WNW,285,0.0,3.0,70,0.00,,---,0.00,0.00,VWS V14.01,2013-06-02 06:07:00,
2013-06-01 23:12:00,58.0,48.7,29.99,WNW,285,0.0,0.0,71,0.00,,---,0.00,0.00,VWS V14.01,2013-06-02 06:12:00,
2013-06-01 23:17:00,57.9,48.9,29.99,WNW,285,0.0,0.0,72,0.00,,---,0.00,0.00,VWS V14.01,2013-06-02 06:17:00,
2013-06-01 23:22:00,57.8,49.2,29.99,WNW,285,0.0,0.0,73,0.00,,---,0.00,0.00,VWS V14.01,2013-06-02 06:22:00,
2013-06-01 23:27:00,57.7,48.4,29.99,WNW,285,0.0,0.0,71,0.00,,---,0.00,0.00,VWS V14.01,2013-06-02 06:27:00,
2013-06-01 23:32:00,57.6,49.0,29.99,WNW,285,0.0,0.0,73,0.00,,---,0.00,0.00,VWS V14.01,2013-06-02 06:32:00,
2013-06-01 23:37:00,57.4,48.5,29.99,WNW,285,0.0,1.0,72,0.00,,---,0.00,0.00,VWS V14.01,2013-06-02 06:37:00,
2013-06-01 23:42:00,57.3,48.7,29.99,WNW,285,0.0,1.0,73,0.00,,---,0.00,0.00,VWS V14.01,2013-06-02 06:42:00,
2013-06-01 23:47:00,57.2,48.3,29.99,WNW,285,0.0,0.0,72,0.00,,---,0.00,0.00,VWS V14.01,2013-06-02 06:47:00,
2013-06-01 23:52:00,57.1,48.5,29.99,WNW,285,0.0,0.0,73,0.00,,---,0.00,0.00,VWS V14.01,2013-06-02 06:52:00,
2013-06-01 23:57:00,56.9,48.3,29.99,WNW,285,0.0,0.0,73,0.00,,---,0.00,0.00,VWS V14.01,2013-06-02 06:57:00,